Погода в Карагае

Россия / Республика Алтай     50°23′42″N   84°37′11″E
темп.,
°C
ветер,
м/с
пор.,
м/с
влажн.,
%
обл.,
%
осадки,
мм/ч
давл.,
гПа
погр.,
м
9 мая, вс
вс901:00+5св11650 0.0 101912
04:00+4в1171100 0.0 102010
07:00+5вюв11716 0.0 102029
10:00+9вюв115050 0.0 1017379
13:00+15вюв112742 0.0 10141131
16:00+16зсз562081 0.0 10132315
19:00+14зсз242699 0.0 10121276
22:00+9сз11425 0.0 101312
10 мая, пн
пн1001:00+6св1157100 0.0 101312
04:00+5в1162100 0.0 101310
07:00+6вюв1164100 0.0 101329
10:00+9вюв115296 0.0 1011337
13:00+15з143424 0.0 10081695
16:00+15з674264 0.1 10072245
19:00+14з354995 0.3 10071652
22:00+9всв118240 2.2 100976
11 мая, вт
вт1101:00+6юв1189100 2.9 100814
04:00+6зюз1190100 0.9 100824
07:00+6ю1188100 1.9 100864
10:00+10ююз236228 1.0 10071088
13:00+12з455580 3.3 10071506
16:00+12зсз555866 2.1 10071418
19:00+7с3380100 3.0 1010661
22:00+3всв3396100 1.7 1015523
12 мая, ср
ср1201:00+2св2297100 3.3 1016249
04:00+2св1189100 0.4 1015221
07:00+2всв119398 0.9 1015198
10:00+5св236589 0.6 10141124
13:00+7св3456100 1.6 10121497
16:00+7св4656100 1.4 10131586
19:00+6ссв455767 2.1 10141397
22:00+3ссз228249 0.1 101821
13 мая, чт
чт1301:00+3ссз249299 0.2 1019355
04:00+2сз129092 0.1 1019198
07:00+2ссз238938 0.1 1021219
10:00+6всв246174 0.1 10191230
13:00+8в235089 0.2 10171699
16:00+10всв234036 0.0 10161962
19:00+10всв233849 0.0 10161936
22:00+6всв115829 0.0 101811